Time,TemperatureF,DewpointF,PressureIn,WindDirection,WindDirectionDegrees,WindSpeedMPH,WindSpeedGustMPH,Humidity,HourlyPrecipIn,Conditions,Clouds,dailyrainin,SoftwareType,DateUTC
2013-08-26 00:00:00,77.2,73.7,30.12,East,82,3.0,5.0,89,0.00,,---,0.00,VWS V14.01,2013-08-26 04:00:00,
2013-08-26 00:01:00,77.1,73.6,30.12,East,82,4.0,4.0,89,0.00,,---,0.00,VWS V14.01,2013-08-26 04:01:00,
2013-08-26 00:06:00,77.1,73.6,30.12,East,82,0.0,4.0,89,0.00,,---,0.00,VWS V14.01,2013-08-26 04:06:00,
2013-08-26 00:10:00,77.1,73.6,30.12,East,82,0.0,4.0,89,0.00,,---,0.00,VWS V14.01,2013-08-26 04:10:00,
2013-08-26 00:11:00,77.1,73.6,30.12,East,82,0.0,0.0,89,0.00,,---,0.00,VWS V14.01,2013-08-26 04:11:00,
2013-08-26 00:16:00,77.1,73.6,30.12,East,82,2.0,3.0,89,0.00,,---,0.00,VWS V14.01,2013-08-26 04:16:00,
2013-08-26 00:20:00,77.0,73.5,30.12,East,82,2.0,3.0,89,0.00,,---,0.00,VWS V14.01,2013-08-26 04:20:00,
2013-08-26 00:21:00,77.0,73.5,30.12,East,82,2.0,2.0,89,0.00,,---,0.00,VWS V14.01,2013-08-26 04:21:00,
2013-08-26 00:26:00,76.9,73.8,30.12,East,82,3.0,5.0,90,0.00,,---,0.00,VWS V14.01,2013-08-26 04:26:00,
2013-08-26 00:30:00,76.7,73.6,30.12,East,82,2.0,6.0,90,0.00,,---,0.00,VWS V14.01,2013-08-26 04:30:00,
2013-08-26 00:31:00,76.7,73.6,30.12,East,82,2.0,3.0,90,0.00,,---,0.00,VWS V14.01,2013-08-26 04:31:00,
2013-08-26 00:36:00,76.6,73.4,30.12,East,82,4.0,5.0,90,0.00,,---,0.00,VWS V14.01,2013-08-26 04:36:00,
2013-08-26 00:40:00,76.5,73.3,30.12,East,82,4.0,5.0,90,0.00,,---,0.00,VWS V14.01,2013-08-26 04:40:00,
2013-08-26 00:41:00,76.5,73.3,30.12,East,82,3.0,5.0,90,0.00,,---,0.00,VWS V14.01,2013-08-26 04:41:00,
2013-08-26 00:46:00,76.4,73.6,30.12,East,82,3.0,7.0,91,0.00,,---,0.00,VWS V14.01,2013-08-26 04:46:00,
2013-08-26 00:50:00,76.4,73.6,30.12,East,82,4.0,7.0,91,0.00,,---,0.00,VWS V14.01,2013-08-26 04:50:00,
2013-08-26 00:51:00,76.4,73.6,30.12,East,82,2.0,4.0,91,0.00,,---,0.00,VWS V14.01,2013-08-26 04:51:00,
2013-08-26 00:56:00,76.3,73.5,30.12,East,82,4.0,6.0,91,0.00,,---,0.00,VWS V14.01,2013-08-26 04:56:00,
2013-08-26 01:00:00,76.4,73.6,30.12,East,82,6.0,6.0,91,0.00,,---,0.00,VWS V14.01,2013-08-26 05:00:00,
2013-08-26 01:01:00,76.4,73.6,30.12,East,82,6.0,7.0,91,0.00,,---,0.00,VWS V14.01,2013-08-26 05:01:00,
2013-08-26 01:06:00,76.4,73.6,30.12,ENE,73,6.0,8.0,91,0.00,,---,0.00,VWS V14.01,2013-08-26 05:06:00,
2013-08-26 01:10:00,76.5,73.7,30.12,NE,53,4.0,8.0,91,0.00,,---,0.00,VWS V14.01,2013-08-26 05:10:00,
2013-08-26 01:11:00,76.5,73.7,30.12,NE,53,4.0,5.0,91,0.00,,---,0.00,VWS V14.01,2013-08-26 05:11:00,
2013-08-26 01:16:00,76.5,73.7,30.11,NE,37,4.0,12.0,91,0.00,,---,0.00,VWS V14.01,2013-08-26 05:16:00,
2013-08-26 01:20:00,76.6,73.8,30.11,NE,41,2.0,12.0,91,0.00,,---,0.00,VWS V14.01,2013-08-26 05:20:00,
2013-08-26 01:21:00,76.6,73.8,30.11,NE,41,5.0,5.0,91,0.00,,---,0.00,VWS V14.01,2013-08-26 05:21:00,
2013-08-26 01:26:00,76.5,73.3,30.11,NE,39,1.0,8.0,90,0.00,,---,0.00,VWS V14.01,2013-08-26 05:26:00,
2013-08-26 01:30:00,76.5,73.3,30.11,NE,39,3.0,8.0,90,0.00,,---,0.00,VWS V14.01,2013-08-26 05:30:00,
2013-08-26 01:31:00,76.5,73.3,30.11,NE,39,2.0,3.0,90,0.00,,---,0.00,VWS V14.01,2013-08-26 05:31:00,
2013-08-26 01:36:00,76.4,73.6,30.11,NE,39,6.0,6.0,91,0.00,,---,0.00,VWS V14.01,2013-08-26 05:36:00,
2013-08-26 01:40:00,76.3,73.5,30.11,NE,39,3.0,6.0,91,0.00,,---,0.00,VWS V14.01,2013-08-26 05:40:00,
2013-08-26 01:41:00,76.3,73.5,30.11,NE,39,2.0,3.0,91,0.00,,---,0.00,VWS V14.01,2013-08-26 05:41:00,
2013-08-26 01:46:00,76.2,73.4,30.10,NE,39,0.0,5.0,91,0.00,,---,0.00,VWS V14.01,2013-08-26 05:46:00,
2013-08-26 01:50:00,76.2,73.4,30.10,NE,39,2.0,6.0,91,0.00,,---,0.00,VWS V14.01,2013-08-26 05:50:00,
2013-08-26 01:51:00,76.2,73.4,30.10,NE,39,5.0,5.0,91,0.00,,---,0.00,VWS V14.01,2013-08-26 05:51:00,
2013-08-26 01:56:00,76.2,73.7,30.10,NE,39,4.0,8.0,92,0.00,,---,0.00,VWS V14.01,2013-08-26 05:56:00,
2013-08-26 02:00:00,76.2,73.7,30.10,NE,39,3.0,8.0,92,0.00,,---,0.00,VWS V14.01,2013-08-26 06:00:00,
2013-08-26 02:01:00,76.2,73.7,30.10,NE,39,3.0,3.0,92,0.00,,---,0.00,VWS V14.01,2013-08-26 06:01:00,
2013-08-26 02:06:00,76.2,73.7,30.10,NE,39,1.0,6.0,92,0.00,,---,0.00,VWS V14.01,2013-08-26 06:06:00,
2013-08-26 02:10:00,76.1,73.6,30.10,NE,39,0.0,6.0,92,0.00,,---,0.00,VWS V14.01,2013-08-26 06:10:00,
2013-08-26 02:11:00,76.1,73.6,30.10,NE,39,1.0,1.0,92,0.00,,---,0.00,VWS V14.01,2013-08-26 06:11:00,
2013-08-26 02:16:00,76.1,73.6,30.10,NE,39,3.0,5.0,92,0.00,,---,0.00,VWS V14.01,2013-08-26 06:16:00,
2013-08-26 02:20:00,76.0,73.5,30.10,NE,39,2.0,5.0,92,0.00,,---,0.00,VWS V14.01,2013-08-26 06:20:00,
2013-08-26 02:21:00,76.0,73.5,30.10,NE,39,1.0,2.0,92,0.00,,---,0.00,VWS V14.01,2013-08-26 06:21:00,
2013-08-26 02:26:00,75.9,73.4,30.09,NE,39,0.0,4.0,92,0.00,,---,0.00,VWS V14.01,2013-08-26 06:26:00,
2013-08-26 02:30:00,75.8,73.6,30.09,NE,39,5.0,6.0,93,0.00,,---,0.00,VWS V14.01,2013-08-26 06:30:00,
2013-08-26 02:31:00,75.8,73.6,30.09,NE,39,4.0,5.0,93,0.00,,---,0.00,VWS V14.01,2013-08-26 06:31:00,
2013-08-26 02:36:00,75.7,73.5,30.09,NE,39,0.0,5.0,93,0.00,,---,0.00,VWS V14.01,2013-08-26 06:36:00,
2013-08-26 02:40:00,75.7,73.5,30.09,NE,39,1.0,5.0,93,0.00,,---,0.00,VWS V14.01,2013-08-26 06:40:00,
2013-08-26 02:41:00,75.7,73.5,30.08,NE,39,1.0,2.0,93,0.00,,---,0.00,VWS V14.01,2013-08-26 06:41:00,
2013-08-26 02:46:00,75.5,73.3,30.08,NE,39,0.0,2.0,93,0.00,,---,0.00,VWS V14.01,2013-08-26 06:46:00,
2013-08-26 02:50:00,75.5,73.3,30.08,NE,39,0.0,4.0,93,0.00,,---,0.00,VWS V14.01,2013-08-26 06:50:00,
2013-08-26 02:51:00,75.5,73.3,30.08,NE,39,0.0,0.0,93,0.00,,---,0.00,VWS V14.01,2013-08-26 06:51:00,
2013-08-26 02:56:00,75.4,73.2,30.08,NE,39,0.0,2.0,93,0.00,,---,0.00,VWS V14.01,2013-08-26 06:56:00,
2013-08-26 03:00:00,75.4,73.2,30.08,NE,39,2.0,3.0,93,0.00,,---,0.00,VWS V14.01,2013-08-26 07:00:00,
2013-08-26 03:01:00,75.4,73.2,30.08,NE,39,0.0,2.0,93,0.00,,---,0.00,VWS V14.01,2013-08-26 07:01:00,
2013-08-26 03:06:00,75.3,73.5,30.08,NE,39,1.0,3.0,94,0.00,,---,0.00,VWS V14.01,2013-08-26 07:06:00,
2013-08-26 03:10:00,75.3,73.5,30.08,NE,39,2.0,3.0,94,0.00,,---,0.00,VWS V14.01,2013-08-26 07:10:00,
2013-08-26 03:11:00,75.3,73.5,30.08,NE,39,1.0,2.0,94,0.00,,---,0.00,VWS V14.01,2013-08-26 07:11:00,
2013-08-26 03:16:00,75.2,73.4,30.08,NE,39,0.0,3.0,94,0.00,,---,0.00,VWS V14.01,2013-08-26 07:16:00,
2013-08-26 03:20:00,75.2,73.4,30.08,NE,39,2.0,3.0,94,0.00,,---,0.00,VWS V14.01,2013-08-26 07:20:00,
2013-08-26 03:21:00,75.2,73.4,30.08,NE,39,0.0,2.0,94,0.00,,---,0.00,VWS V14.01,2013-08-26 07:21:00,
2013-08-26 03:26:00,75.1,73.3,30.08,NE,39,0.0,4.0,94,0.00,,---,0.00,VWS V14.01,2013-08-26 07:26:00,
2013-08-26 03:30:00,75.1,73.3,30.08,NE,39,3.0,5.0,94,0.00,,---,0.00,VWS V14.01,2013-08-26 07:30:00,
2013-08-26 03:31:00,75.1,73.3,30.08,NE,39,6.0,6.0,94,0.00,,---,0.00,VWS V14.01,2013-08-26 07:31:00,
2013-08-26 03:36:00,75.2,73.4,30.08,ENE,57,0.0,8.0,94,0.00,,---,0.00,VWS V14.01,2013-08-26 07:36:00,
2013-08-26 03:40:00,75.3,73.5,30.08,ENE,57,3.0,8.0,94,0.00,,---,0.00,VWS V14.01,2013-08-26 07:40:00,
2013-08-26 03:41:00,75.3,73.5,30.08,ENE,57,2.0,3.0,94,0.00,,---,0.00,VWS V14.01,2013-08-26 07:41:00,
2013-08-26 03:46:00,75.3,73.5,30.08,ENE,57,2.0,5.0,94,0.00,,---,0.00,VWS V14.01,2013-08-26 07:46:00,
2013-08-26 03:50:00,75.3,73.5,30.08,ENE,57,0.0,5.0,94,0.00,,---,0.00,VWS V14.01,2013-08-26 07:50:00,
2013-08-26 03:51:00,75.4,73.6,30.07,ENE,57,0.0,0.0,94,0.00,,---,0.00,VWS V14.01,2013-08-26 07:51:00,
2013-08-26 03:56:00,75.3,73.5,30.08,ENE,57,4.0,5.0,94,0.00,,---,0.00,VWS V14.01,2013-08-26 07:56:00,
2013-08-26 04:00:00,75.3,73.5,30.08,ENE,57,0.0,6.0,94,0.00,,---,0.00,VWS V14.01,2013-08-26 08:00:00,
2013-08-26 04:01:00,75.3,73.5,30.08,ENE,57,1.0,1.0,94,0.00,,---,0.00,VWS V14.01,2013-08-26 08:01:00,
2013-08-26 04:06:00,75.2,73.4,30.07,ENE,57,6.0,6.0,94,0.00,,---,0.00,VWS V14.01,2013-08-26 08:06:00,
2013-08-26 04:10:00,75.1,73.3,30.07,ENE,57,3.0,7.0,94,0.00,,---,0.00,VWS V14.01,2013-08-26 08:10:00,
2013-08-26 04:11:00,75.1,73.3,30.07,ENE,57,5.0,5.0,94,0.00,,---,0.00,VWS V14.01,2013-08-26 08:11:00,
2013-08-26 04:16:00,75.1,73.3,30.07,ENE,57,4.0,7.0,94,0.00,,---,0.00,VWS V14.01,2013-08-26 08:16:00,
2013-08-26 04:20:00,75.1,73.6,30.07,ENE,57,0.0,7.0,95,0.00,,---,0.00,VWS V14.01,2013-08-26 08:20:00,
2013-08-26 04:21:00,75.1,73.6,30.07,ENE,57,2.0,2.0,95,0.00,,---,0.00,VWS V14.01,2013-08-26 08:21:00,
2013-08-26 04:26:00,75.0,73.5,30.07,ENE,57,0.0,2.0,95,0.00,,---,0.00,VWS V14.01,2013-08-26 08:26:00,
2013-08-26 04:30:00,74.9,73.4,30.07,ENE,57,0.0,2.0,95,0.00,,---,0.00,VWS V14.01,2013-08-26 08:30:00,
2013-08-26 04:31:00,74.9,73.4,30.07,ENE,57,0.0,0.0,95,0.00,,---,0.00,VWS V14.01,2013-08-26 08:31:00,
2013-08-26 04:36:00,74.9,73.1,30.07,ENE,57,1.0,3.0,94,0.00,,---,0.00,VWS V14.01,2013-08-26 08:36:00,
2013-08-26 04:40:00,74.8,73.0,30.08,ENE,57,2.0,3.0,94,0.00,,---,0.00,VWS V14.01,2013-08-26 08:40:00,
2013-08-26 04:41:00,74.8,73.0,30.08,ENE,57,3.0,3.0,94,0.00,,---,0.00,VWS V14.01,2013-08-26 08:41:00,
2013-08-26 04:46:00,74.7,72.9,30.08,ENE,57,0.0,3.0,94,0.00,,---,0.00,VWS V14.01,2013-08-26 08:46:00,
2013-08-26 04:50:00,74.7,73.2,30.08,ENE,57,0.0,3.0,95,0.00,,---,0.00,VWS V14.01,2013-08-26 08:50:00,
2013-08-26 04:51:00,74.7,73.2,30.07,ENE,57,0.0,0.0,95,0.00,,---,0.00,VWS V14.01,2013-08-26 08:51:00,
2013-08-26 04:56:00,74.7,73.2,30.08,ENE,57,0.0,2.0,95,0.00,,---,0.00,VWS V14.01,2013-08-26 08:56:00,
2013-08-26 05:00:00,74.7,73.2,30.08,ENE,57,3.0,3.0,95,0.00,,---,0.00,VWS V14.01,2013-08-26 09:00:00,
2013-08-26 05:01:00,74.7,73.2,30.08,ENE,57,3.0,3.0,95,0.00,,---,0.00,VWS V14.01,2013-08-26 09:01:00,
2013-08-26 05:06:00,74.7,73.2,30.08,ENE,57,2.0,4.0,95,0.00,,---,0.00,VWS V14.01,2013-08-26 09:06:00,
2013-08-26 05:10:00,74.7,73.2,30.08,ENE,57,2.0,6.0,95,0.00,,---,0.00,VWS V14.01,2013-08-26 09:10:00,
2013-08-26 05:11:00,74.7,73.2,30.08,ENE,57,4.0,4.0,95,0.00,,---,0.00,VWS V14.01,2013-08-26 09:11:00,
2013-08-26 05:16:00,74.7,73.2,30.08,ENE,57,0.0,7.0,95,0.00,,---,0.00,VWS V14.01,2013-08-26 09:16:00,
2013-08-26 05:20:00,74.7,73.2,30.08,ENE,57,2.0,7.0,95,0.00,,---,0.00,VWS V14.01,2013-08-26 09:20:00,
2013-08-26 05:21:00,74.7,73.2,30.08,ENE,57,4.0,4.0,95,0.00,,---,0.00,VWS V14.01,2013-08-26 09:21:00,
2013-08-26 05:26:00,74.7,73.2,30.08,ENE,57,6.0,8.0,95,0.00,,---,0.00,VWS V14.01,2013-08-26 09:26:00,
2013-08-26 05:30:00,74.7,73.2,30.08,ENE,57,3.0,8.0,95,0.00,,---,0.00,VWS V14.01,2013-08-26 09:30:00,
2013-08-26 05:31:00,74.8,73.3,30.08,ENE,57,2.0,3.0,95,0.00,,---,0.00,VWS V14.01,2013-08-26 09:31:00,
2013-08-26 05:36:00,74.7,73.2,30.08,ENE,57,3.0,5.0,95,0.00,,---,0.00,VWS V14.01,2013-08-26 09:36:00,
2013-08-26 05:40:00,74.7,73.2,30.08,ENE,57,7.0,8.0,95,0.00,,---,0.00,VWS V14.01,2013-08-26 09:40:00,
2013-08-26 05:41:00,74.7,73.2,30.08,NE,55,6.0,7.0,95,0.00,,---,0.00,VWS V14.01,2013-08-26 09:41:00,
2013-08-26 05:46:00,74.7,73.2,30.08,NE,55,4.0,7.0,95,0.00,,---,0.00,VWS V14.01,2013-08-26 09:46:00,
2013-08-26 05:50:00,74.7,73.2,30.08,NE,55,5.0,7.0,95,0.00,,---,0.00,VWS V14.01,2013-08-26 09:50:00,
2013-08-26 05:51:00,74.7,73.2,30.08,NE,55,2.0,5.0,95,0.00,,---,0.00,VWS V14.01,2013-08-26 09:51:00,
2013-08-26 05:56:00,74.7,73.2,30.08,NE,55,4.0,6.0,95,0.00,,---,0.00,VWS V14.01,2013-08-26 09:56:00,
2013-08-26 06:00:00,74.6,73.1,30.08,NE,55,1.0,6.0,95,0.00,,---,0.00,VWS V14.01,2013-08-26 10:00:00,
2013-08-26 06:01:00,74.6,73.1,30.08,NE,55,3.0,3.0,95,0.00,,---,0.00,VWS V14.01,2013-08-26 10:01:00,
2013-08-26 06:06:00,74.6,73.1,30.09,NE,55,0.0,6.0,95,0.00,,---,0.00,VWS V14.01,2013-08-26 10:06:00,
2013-08-26 06:10:00,74.6,73.1,30.09,NE,55,0.0,6.0,95,0.00,,---,0.00,VWS V14.01,2013-08-26 10:10:00,
2013-08-26 06:11:00,74.6,73.1,30.09,NE,55,1.0,2.0,95,0.00,,---,0.00,VWS V14.01,2013-08-26 10:11:00,
2013-08-26 06:16:00,74.6,73.1,30.09,NE,55,5.0,5.0,95,0.00,,---,0.00,VWS V14.01,2013-08-26 10:16:00,
2013-08-26 06:20:00,74.6,73.1,30.09,NE,55,2.0,5.0,95,0.00,,---,0.00,VWS V14.01,2013-08-26 10:20:00,
2013-08-26 06:21:00,74.6,73.1,30.09,NE,55,1.0,2.0,95,0.00,,---,0.00,VWS V14.01,2013-08-26 10:21:00,
2013-08-26 06:26:00,74.6,73.1,30.09,NE,55,2.0,6.0,95,0.00,,---,0.00,VWS V14.01,2013-08-26 10:26:00,
2013-08-26 06:30:00,74.6,73.1,30.09,NE,55,1.0,8.0,95,0.00,,---,0.00,VWS V14.01,2013-08-26 10:30:00,
2013-08-26 06:31:00,74.6,73.1,30.08,NE,55,0.0,1.0,95,0.00,,---,0.00,VWS V14.01,2013-08-26 10:31:00,
2013-08-26 06:36:00,74.6,73.1,30.08,NE,55,3.0,5.0,95,0.00,,---,0.00,VWS V14.01,2013-08-26 10:36:00,
2013-08-26 06:40:00,74.6,73.1,30.08,NE,55,0.0,5.0,95,0.00,,---,0.00,VWS V14.01,2013-08-26 10:40:00,
2013-08-26 06:41:00,74.6,73.1,30.08,NE,55,0.0,0.0,95,0.00,,---,0.00,VWS V14.01,2013-08-26 10:41:00,
2013-08-26 06:46:00,74.5,73.0,30.08,NE,55,2.0,3.0,95,0.00,,---,0.00,VWS V14.01,2013-08-26 10:46:00,
2013-08-26 06:50:00,74.4,72.9,30.08,NE,55,0.0,4.0,95,0.00,,---,0.00,VWS V14.01,2013-08-26 10:50:00,
2013-08-26 06:51:00,74.4,72.9,30.08,NE,55,0.0,0.0,95,0.00,,---,0.00,VWS V14.01,2013-08-26 10:51:00,
2013-08-26 06:56:00,74.4,72.9,30.08,NE,55,2.0,3.0,95,0.00,,---,0.00,VWS V14.01,2013-08-26 10:56:00,
2013-08-26 07:00:00,74.4,72.9,30.08,NE,55,0.0,3.0,95,0.00,,---,0.00,VWS V14.01,2013-08-26 11:00:00,
2013-08-26 07:01:00,74.4,72.9,30.08,NE,55,0.0,0.0,95,0.00,,---,0.00,VWS V14.01,2013-08-26 11:01:00,
2013-08-26 07:06:00,74.3,72.8,30.08,NE,55,0.0,3.0,95,0.00,,---,0.00,VWS V14.01,2013-08-26 11:06:00,
2013-08-26 07:10:00,74.3,72.8,30.09,NE,55,1.0,4.0,95,0.00,,---,0.00,VWS V14.01,2013-08-26 11:10:00,
2013-08-26 07:11:00,74.3,72.8,30.09,NE,55,0.0,1.0,95,0.00,,---,0.00,VWS V14.01,2013-08-26 11:11:00,
2013-08-26 07:16:00,74.4,72.9,30.09,NE,55,0.0,1.0,95,0.00,,---,0.00,VWS V14.01,2013-08-26 11:16:00,
2013-08-26 07:20:00,74.4,72.9,30.09,NE,55,1.0,3.0,95,0.00,,---,0.00,VWS V14.01,2013-08-26 11:20:00,
2013-08-26 07:21:00,74.3,72.8,30.09,NE,55,2.0,2.0,95,0.00,,---,0.00,VWS V14.01,2013-08-26 11:21:00,
2013-08-26 07:26:00,74.4,72.9,30.09,NE,55,3.0,5.0,95,0.00,,---,0.00,VWS V14.01,2013-08-26 11:26:00,
2013-08-26 07:30:00,74.5,73.0,30.09,NE,55,3.0,5.0,95,0.00,,---,0.00,VWS V14.01,2013-08-26 11:30:00,
2013-08-26 07:31:00,74.5,73.0,30.09,NE,55,1.0,3.0,95,0.00,,---,0.00,VWS V14.01,2013-08-26 11:31:00,
2013-08-26 07:36:00,74.7,73.2,30.09,NE,55,3.0,7.0,95,0.00,,---,0.00,VWS V14.01,2013-08-26 11:36:00,
2013-08-26 07:40:00,74.9,73.4,30.09,NE,55,0.0,7.0,95,0.00,,---,0.00,VWS V14.01,2013-08-26 11:40:00,
2013-08-26 07:41:00,74.9,73.4,30.09,NE,55,0.0,0.0,95,0.00,,---,0.00,VWS V14.01,2013-08-26 11:41:00,
2013-08-26 07:46:00,75.2,74.0,30.09,NE,55,0.0,8.0,96,0.00,,---,0.00,VWS V14.01,2013-08-26 11:46:00,
2013-08-26 07:50:00,75.5,74.0,30.09,NE,55,1.0,8.0,95,0.00,,---,0.00,VWS V14.01,2013-08-26 11:50:00,
2013-08-26 07:51:00,75.5,74.0,30.09,NE,55,2.0,2.0,95,0.00,,---,0.00,VWS V14.01,2013-08-26 11:51:00,
2013-08-26 07:56:00,76.0,74.5,30.09,NE,55,2.0,2.0,95,0.00,,---,0.00,VWS V14.01,2013-08-26 11:56:00,
2013-08-26 08:00:00,76.4,74.9,30.09,NE,55,3.0,6.0,95,0.00,,---,0.00,VWS V14.01,2013-08-26 12:00:00,
2013-08-26 08:01:00,76.4,74.9,30.09,NE,55,3.0,3.0,95,0.00,,---,0.00,VWS V14.01,2013-08-26 12:01:00,
2013-08-26 08:06:00,77.0,75.1,30.09,NE,55,0.0,4.0,94,0.00,,---,0.00,VWS V14.01,2013-08-26 12:06:00,
2013-08-26 08:10:00,77.6,75.4,30.09,NE,55,0.0,4.0,93,0.00,,---,0.00,VWS V14.01,2013-08-26 12:10:00,
2013-08-26 08:11:00,77.6,75.4,30.09,NE,55,0.0,0.0,93,0.00,,---,0.00,VWS V14.01,2013-08-26 12:11:00,
2013-08-26 08:16:00,78.3,75.5,30.09,NE,55,4.0,6.0,91,0.00,,---,0.00,VWS V14.01,2013-08-26 12:16:00,
2013-08-26 08:20:00,78.9,76.1,30.09,NE,55,2.0,6.0,91,0.00,,---,0.00,VWS V14.01,2013-08-26 12:20:00,
2013-08-26 08:21:00,78.9,76.1,30.09,NE,55,1.0,2.0,91,0.00,,---,0.00,VWS V14.01,2013-08-26 12:21:00,
2013-08-26 08:26:00,79.7,76.5,30.09,NE,55,2.0,2.0,90,0.00,,---,0.00,VWS V14.01,2013-08-26 12:26:00,
2013-08-26 08:30:00,80.1,76.2,30.09,NE,55,2.0,6.0,88,0.00,,---,0.00,VWS V14.01,2013-08-26 12:30:00,
2013-08-26 08:31:00,80.1,76.2,30.09,NE,55,5.0,5.0,88,0.00,,---,0.00,VWS V14.01,2013-08-26 12:31:00,
2013-08-26 08:36:00,80.3,76.1,30.09,NE,55,3.0,6.0,87,0.00,,---,0.00,VWS V14.01,2013-08-26 12:36:00,
2013-08-26 08:40:00,80.5,76.6,30.10,NE,55,4.0,6.0,88,0.00,,---,0.00,VWS V14.01,2013-08-26 12:40:00,
2013-08-26 08:41:00,80.6,76.4,30.10,NE,55,3.0,4.0,87,0.00,,---,0.00,VWS V14.01,2013-08-26 12:41:00,
2013-08-26 08:46:00,80.8,76.9,30.10,NE,55,3.0,6.0,88,0.00,,---,0.00,VWS V14.01,2013-08-26 12:46:00,
2013-08-26 08:50:00,81.2,76.3,30.10,NE,55,5.0,8.0,85,0.00,,---,0.00,VWS V14.01,2013-08-26 12:50:00,
2013-08-26 08:51:00,81.2,76.3,30.10,NE,55,5.0,6.0,85,0.00,,---,0.00,VWS V14.01,2013-08-26 12:51:00,
2013-08-26 08:56:00,81.2,76.3,30.10,NE,55,6.0,7.0,85,0.00,,---,0.00,VWS V14.01,2013-08-26 12:56:00,
2013-08-26 09:00:00,80.9,76.0,30.11,NE,55,0.0,7.0,85,0.00,,---,0.00,VWS V14.01,2013-08-26 13:00:00,
2013-08-26 09:01:00,80.8,75.9,30.10,NE,55,4.0,4.0,85,0.00,,---,0.00,VWS V14.01,2013-08-26 13:01:00,
2013-08-26 09:06:00,80.6,76.0,30.10,NE,55,3.0,7.0,86,0.00,,---,0.00,VWS V14.01,2013-08-26 13:06:00,
2013-08-26 09:10:00,80.9,76.7,30.10,NE,55,5.0,7.0,87,0.00,,---,0.00,VWS V14.01,2013-08-26 13:10:00,
2013-08-26 09:11:00,80.9,76.7,30.10,NE,55,5.0,5.0,87,0.00,,---,0.00,VWS V14.01,2013-08-26 13:11:00,
2013-08-26 09:16:00,81.4,76.8,30.10,NE,55,5.0,7.0,86,0.00,,---,0.00,VWS V14.01,2013-08-26 13:16:00,
2013-08-26 09:20:00,81.9,76.9,30.10,NE,55,4.0,7.0,85,0.00,,---,0.00,VWS V14.01,2013-08-26 13:20:00,
2013-08-26 09:21:00,81.9,76.9,30.10,NE,55,6.0,6.0,85,0.00,,---,0.00,VWS V14.01,2013-08-26 13:21:00,
2013-08-26 09:26:00,82.3,76.6,30.10,NE,55,3.0,7.0,83,0.00,,---,0.00,VWS V14.01,2013-08-26 13:26:00,
2013-08-26 09:30:00,82.2,76.2,30.10,NE,55,5.0,7.0,82,0.00,,---,0.00,VWS V14.01,2013-08-26 13:30:00,
2013-08-26 09:31:00,82.2,76.2,30.10,NE,55,7.0,7.0,82,0.00,,---,0.00,VWS V14.01,2013-08-26 13:31:00,
2013-08-26 09:36:00,82.0,76.3,30.10,NE,55,2.0,7.0,83,0.00,,---,0.00,VWS V14.01,2013-08-26 13:36:00,
2013-08-26 09:40:00,82.0,76.7,30.10,NE,55,0.0,7.0,84,0.00,,---,0.00,VWS V14.01,2013-08-26 13:40:00,
2013-08-26 09:41:00,82.0,76.7,30.10,NE,55,1.0,1.0,84,0.00,,---,0.00,VWS V14.01,2013-08-26 13:41:00,
2013-08-26 09:46:00,82.0,77.1,30.10,NE,55,3.0,5.0,85,0.00,,---,0.00,VWS V14.01,2013-08-26 13:46:00,
2013-08-26 09:50:00,82.0,76.7,30.10,NE,55,2.0,5.0,84,0.00,,---,0.00,VWS V14.01,2013-08-26 13:50:00,
2013-08-26 09:51:00,82.0,77.1,30.10,NE,55,2.0,3.0,85,0.00,,---,0.00,VWS V14.01,2013-08-26 13:51:00,
2013-08-26 09:56:00,82.3,77.3,30.10,NE,55,6.0,7.0,85,0.00,,---,0.00,VWS V14.01,2013-08-26 13:56:00,
2013-08-26 10:00:00,82.8,77.5,30.10,NE,55,6.0,7.0,84,0.00,,---,0.00,VWS V14.01,2013-08-26 14:00:00,
2013-08-26 10:01:00,82.8,77.5,30.10,NE,55,6.0,7.0,84,0.00,,---,0.00,VWS V14.01,2013-08-26 14:01:00,
2013-08-26 10:06:00,83.3,77.2,30.10,North,5,6.0,9.0,82,0.00,,---,0.00,VWS V14.01,2013-08-26 14:06:00,
2013-08-26 10:10:00,83.3,76.9,30.11,NNE,30,3.0,9.0,81,0.00,,---,0.00,VWS V14.01,2013-08-26 14:10:00,
2013-08-26 10:11:00,83.3,76.9,30.11,NNE,30,4.0,4.0,81,0.00,,---,0.00,VWS V14.01,2013-08-26 14:11:00,
2013-08-26 10:16:00,82.8,76.8,30.10,NNE,25,4.0,11.0,82,0.00,,---,0.00,VWS V14.01,2013-08-26 14:16:00,
2013-08-26 10:20:00,82.9,76.8,30.10,NNE,30,3.0,11.0,82,0.00,,---,0.00,VWS V14.01,2013-08-26 14:20:00,
2013-08-26 10:21:00,82.8,76.4,30.11,NNE,30,3.0,4.0,81,0.00,,---,0.00,VWS V14.01,2013-08-26 14:21:00,
2013-08-26 10:26:00,83.2,76.4,30.11,ENE,64,8.0,12.0,80,0.00,,---,0.00,VWS V14.01,2013-08-26 14:26:00,
2013-08-26 10:30:00,83.3,76.5,30.10,East,87,8.0,13.0,80,0.00,,---,0.00,VWS V14.01,2013-08-26 14:30:00,
2013-08-26 10:31:00,83.3,76.5,30.10,East,84,7.0,12.0,80,0.00,,---,0.00,VWS V14.01,2013-08-26 14:31:00,
2013-08-26 10:36:00,83.5,76.3,30.10,NE,49,5.0,12.0,79,0.00,,---,0.00,VWS V14.01,2013-08-26 14:36:00,
2013-08-26 10:40:00,83.8,77.0,30.10,NE,40,4.0,12.0,80,0.00,,---,0.00,VWS V14.01,2013-08-26 14:40:00,
2013-08-26 10:41:00,83.8,77.0,30.10,NE,40,3.0,4.0,80,0.00,,---,0.00,VWS V14.01,2013-08-26 14:41:00,
2013-08-26 10:46:00,84.2,77.4,30.10,ENE,76,3.0,10.0,80,0.00,,---,0.00,VWS V14.01,2013-08-26 14:46:00,
2013-08-26 10:50:00,84.5,76.9,30.10,East,86,7.0,12.0,78,0.00,,---,0.00,VWS V14.01,2013-08-26 14:50:00,
2013-08-26 10:51:00,84.5,76.5,30.10,ENE,64,5.0,7.0,77,0.00,,---,0.00,VWS V14.01,2013-08-26 14:51:00,
2013-08-26 10:56:00,84.1,76.1,30.10,NE,55,6.0,10.0,77,0.00,,---,0.00,VWS V14.01,2013-08-26 14:56:00,
2013-08-26 11:00:00,84.7,77.1,30.10,NE,39,9.0,10.0,78,0.00,,---,0.00,VWS V14.01,2013-08-26 15:00:00,
2013-08-26 11:01:00,84.7,77.1,30.10,NE,40,5.0,9.0,78,0.00,,---,0.00,VWS V14.01,2013-08-26 15:01:00,
2013-08-26 11:06:00,85.0,76.2,30.10,NE,46,8.0,9.0,75,0.00,,---,0.00,VWS V14.01,2013-08-26 15:06:00,
2013-08-26 11:10:00,85.3,77.3,30.10,NNE,24,7.0,12.0,77,0.00,,---,0.00,VWS V14.01,2013-08-26 15:10:00,
2013-08-26 11:11:00,85.3,77.3,30.10,NNE,22,3.0,7.0,77,0.00,,---,0.00,VWS V14.01,2013-08-26 15:11:00,
2013-08-26 11:16:00,86.0,77.6,30.10,ENE,65,6.0,8.0,76,0.00,,---,0.00,VWS V14.01,2013-08-26 15:16:00,
2013-08-26 11:20:00,86.1,76.8,30.10,East,92,7.0,12.0,74,0.00,,---,0.00,VWS V14.01,2013-08-26 15:20:00,
2013-08-26 11:21:00,86.1,76.8,30.10,East,94,6.0,7.0,74,0.00,,---,0.00,VWS V14.01,2013-08-26 15:21:00,
2013-08-26 11:26:00,85.5,76.7,30.10,NE,44,5.0,8.0,75,0.00,,---,0.00,VWS V14.01,2013-08-26 15:26:00,
2013-08-26 11:30:00,85.8,76.2,30.10,NE,37,6.0,8.0,73,0.00,,---,0.00,VWS V14.01,2013-08-26 15:30:00,
2013-08-26 11:31:00,85.8,76.2,30.10,ENE,76,7.0,7.0,73,0.00,,---,0.00,VWS V14.01,2013-08-26 15:31:00,
2013-08-26 11:36:00,85.3,76.1,30.10,NNE,20,5.0,11.0,74,0.00,,---,0.00,VWS V14.01,2013-08-26 15:36:00,
2013-08-26 11:40:00,84.9,76.1,30.10,NE,51,3.0,11.0,75,0.00,,---,0.00,VWS V14.01,2013-08-26 15:40:00,
2013-08-26 11:41:00,84.9,76.1,30.10,NE,55,5.0,5.0,75,0.00,,---,0.00,VWS V14.01,2013-08-26 15:41:00,
2013-08-26 11:46:00,86.1,76.4,30.10,NE,55,6.0,8.0,73,0.00,,---,0.00,VWS V14.01,2013-08-26 15:46:00,
2013-08-26 11:50:00,86.0,75.5,30.10,East,86,1.0,9.0,71,0.00,,---,0.00,VWS V14.01,2013-08-26 15:50:00,
2013-08-26 11:51:00,86.0,75.5,30.10,East,86,3.0,3.0,71,0.00,,---,0.00,VWS V14.01,2013-08-26 15:51:00,
2013-08-26 11:56:00,86.5,76.8,30.10,ENE,60,0.0,10.0,73,0.00,,---,0.00,VWS V14.01,2013-08-26 15:56:00,
2013-08-26 12:00:00,87.1,76.1,30.09,North,11,6.0,10.0,70,0.00,,---,0.00,VWS V14.01,2013-08-26 16:00:00,
2013-08-26 12:01:00,87.1,75.7,30.09,NNE,12,5.0,6.0,69,0.00,,---,0.00,VWS V14.01,2013-08-26 16:01:00,
2013-08-26 12:06:00,87.2,76.2,30.09,NNE,32,5.0,6.0,70,0.00,,---,0.00,VWS V14.01,2013-08-26 16:06:00,
2013-08-26 12:10:00,86.7,74.4,30.09,NNW,337,3.0,8.0,67,0.00,,---,0.00,VWS V14.01,2013-08-26 16:10:00,
2013-08-26 12:11:00,86.6,74.3,30.09,NNW,337,4.0,4.0,67,0.00,,---,0.00,VWS V14.01,2013-08-26 16:11:00,
2013-08-26 12:16:00,86.7,76.2,30.09,SE,141,7.0,10.0,71,0.00,,---,0.00,VWS V14.01,2013-08-26 16:16:00,
2013-08-26 12:20:00,86.9,76.4,30.09,NNE,28,4.0,10.0,71,0.00,,---,0.00,VWS V14.01,2013-08-26 16:20:00,
2013-08-26 12:21:00,86.9,76.4,30.09,North,5,6.0,8.0,71,0.00,,---,0.00,VWS V14.01,2013-08-26 16:21:00,
2013-08-26 12:26:00,87.9,76.9,30.09,NW,322,4.0,8.0,70,0.00,,---,0.00,VWS V14.01,2013-08-26 16:26:00,
2013-08-26 12:30:00,88.4,77.8,30.09,North,355,8.0,8.0,71,0.00,,---,0.00,VWS V14.01,2013-08-26 16:30:00,
2013-08-26 12:31:00,88.4,77.4,30.09,North,355,8.0,8.0,70,0.00,,---,0.00,VWS V14.01,2013-08-26 16:31:00,
2013-08-26 12:36:00,88.6,78.4,30.08,North,355,4.0,9.0,72,0.00,,---,0.00,VWS V14.01,2013-08-26 16:36:00,
2013-08-26 12:40:00,88.5,76.2,30.08,North,349,5.0,9.0,67,0.00,,---,0.00,VWS V14.01,2013-08-26 16:40:00,
2013-08-26 12:41:00,88.4,76.1,30.08,North,349,5.0,5.0,67,0.00,,---,0.00,VWS V14.01,2013-08-26 16:41:00,
2013-08-26 12:46:00,87.6,76.2,30.08,NNW,346,2.0,7.0,69,0.00,,---,0.00,VWS V14.01,2013-08-26 16:46:00,
2013-08-26 12:50:00,87.4,75.1,30.08,NNW,346,0.0,7.0,67,0.00,,---,0.00,VWS V14.01,2013-08-26 16:50:00,
2013-08-26 12:51:00,87.3,75.0,30.08,NNW,346,5.0,5.0,67,0.00,,---,0.00,VWS V14.01,2013-08-26 16:51:00,
2013-08-26 12:56:00,87.0,75.6,30.08,NNW,346,1.0,5.0,69,0.00,,---,0.00,VWS V14.01,2013-08-26 16:56:00,
2013-08-26 13:00:00,87.8,75.9,30.07,NNE,23,3.0,6.0,68,0.00,,---,0.00,VWS V14.01,2013-08-26 17:00:00,
2013-08-26 13:01:00,87.9,78.6,30.07,NNE,23,3.0,4.0,74,0.00,,---,0.00,VWS V14.01,2013-08-26 17:01:00,
2013-08-26 13:06:00,88.6,76.7,30.07,NNW,341,9.0,10.0,68,0.00,,---,0.00,VWS V14.01,2013-08-26 17:06:00,
2013-08-26 13:10:00,88.2,75.4,30.07,NNW,329,3.0,10.0,66,0.00,,---,0.00,VWS V14.01,2013-08-26 17:10:00,
2013-08-26 13:11:00,88.2,75.9,30.07,NNW,330,5.0,5.0,67,0.00,,---,0.00,VWS V14.01,2013-08-26 17:11:00,
2013-08-26 13:16:00,87.7,75.4,30.07,North,351,4.0,7.0,67,0.00,,---,0.00,VWS V14.01,2013-08-26 17:16:00,
2013-08-26 13:20:00,87.3,75.0,30.07,NE,38,2.0,8.0,67,0.00,,---,0.00,VWS V14.01,2013-08-26 17:20:00,
2013-08-26 13:21:00,87.2,74.9,30.07,NE,38,4.0,5.0,67,0.00,,---,0.00,VWS V14.01,2013-08-26 17:21:00,
2013-08-26 13:26:00,87.7,76.3,30.07,North,355,5.0,7.0,69,0.00,,---,0.00,VWS V14.01,2013-08-26 17:26:00,
2013-08-26 13:30:00,88.5,74.8,30.07,NNE,15,5.0,8.0,64,0.00,,---,0.00,VWS V14.01,2013-08-26 17:30:00,
2013-08-26 13:31:00,88.4,74.7,30.07,NNE,31,7.0,7.0,64,0.00,,---,0.00,VWS V14.01,2013-08-26 17:31:00,
2013-08-26 13:36:00,87.9,76.0,30.07,WNW,302,4.0,7.0,68,0.00,,---,0.00,VWS V14.01,2013-08-26 17:36:00,
2013-08-26 13:40:00,87.3,75.9,30.07,NNW,336,2.0,7.0,69,0.00,,---,0.00,VWS V14.01,2013-08-26 17:40:00,
2013-08-26 13:41:00,87.3,75.4,30.07,NNW,348,5.0,5.0,68,0.00,,---,0.00,VWS V14.01,2013-08-26 17:41:00,
2013-08-26 13:46:00,87.1,74.8,30.06,NNE,24,6.0,8.0,67,0.00,,---,0.00,VWS V14.01,2013-08-26 17:46:00,
2013-08-26 13:50:00,86.6,74.8,30.06,NE,44,8.0,11.0,68,0.00,,---,0.00,VWS V14.01,2013-08-26 17:50:00,
2013-08-26 13:51:00,86.6,74.8,30.07,NE,43,6.0,8.0,68,0.00,,---,0.00,VWS V14.01,2013-08-26 17:51:00,
2013-08-26 13:56:00,85.9,74.6,30.07,NNE,30,5.0,9.0,69,0.00,,---,0.00,VWS V14.01,2013-08-26 17:56:00,
2013-08-26 14:00:00,85.4,74.1,30.06,NNE,26,4.0,9.0,69,0.00,,---,0.00,VWS V14.01,2013-08-26 18:00:00,
2013-08-26 14:01:00,85.4,74.1,30.06,NNE,19,5.0,5.0,69,0.00,,---,0.00,VWS V14.01,2013-08-26 18:01:00,
2013-08-26 14:06:00,85.0,74.1,30.06,NNE,27,2.0,7.0,70,0.00,,---,0.00,VWS V14.01,2013-08-26 18:06:00,
2013-08-26 14:10:00,84.7,74.3,30.06,SSE,148,9.0,9.0,71,0.00,,---,0.00,VWS V14.01,2013-08-26 18:10:00,
2013-08-26 14:11:00,84.7,74.3,30.07,SE,140,10.0,10.0,71,0.00,,---,0.00,VWS V14.01,2013-08-26 18:11:00,
2013-08-26 14:16:00,83.0,74.7,30.06,SE,130,8.0,12.0,76,0.00,,---,0.00,VWS V14.01,2013-08-26 18:16:00,
2013-08-26 14:20:00,81.7,74.9,30.07,East,101,5.0,12.0,80,0.00,,---,0.00,VWS V14.01,2013-08-26 18:20:00,
2013-08-26 14:21:00,81.6,75.2,30.07,East,101,1.0,5.0,81,0.00,,---,0.00,VWS V14.01,2013-08-26 18:21:00,
2013-08-26 14:26:00,80.9,75.6,30.06,SE,138,6.0,7.0,84,0.00,,---,0.00,VWS V14.01,2013-08-26 18:26:00,
2013-08-26 14:30:00,79.9,74.6,30.05,SE,134,7.0,9.0,84,0.00,,---,0.00,VWS V14.01,2013-08-26 18:30:00,
2013-08-26 14:31:00,79.9,74.6,30.06,SE,140,5.0,7.0,84,0.00,,---,0.00,VWS V14.01,2013-08-26 18:31:00,
2013-08-26 14:36:00,79.3,74.4,30.05,South,169,5.0,9.0,85,0.00,,---,0.00,VWS V14.01,2013-08-26 18:36:00,
2013-08-26 14:40:00,78.9,74.4,30.06,SSE,157,2.0,9.0,86,0.00,,---,0.00,VWS V14.01,2013-08-26 18:40:00,
2013-08-26 14:41:00,78.9,74.4,30.06,SSE,157,2.0,2.0,86,0.00,,---,0.00,VWS V14.01,2013-08-26 18:41:00,
2013-08-26 14:46:00,78.9,74.4,30.05,SSE,157,0.0,4.0,86,0.00,,---,0.00,VWS V14.01,2013-08-26 18:46:00,
2013-08-26 14:50:00,79.0,75.2,30.05,SSE,157,0.0,4.0,88,0.00,,---,0.00,VWS V14.01,2013-08-26 18:50:00,
2013-08-26 14:51:00,79.0,75.2,30.06,SSE,157,0.0,0.0,88,0.00,,---,0.00,VWS V14.01,2013-08-26 18:51:00,
2013-08-26 14:56:00,79.2,75.7,30.05,East,94,2.0,6.0,89,0.01,,---,0.01,VWS V14.01,2013-08-26 18:56:00,
2013-08-26 15:00:00,79.2,76.0,30.05,East,93,2.0,6.0,90,0.06,,---,0.06,VWS V14.01,2013-08-26 19:00:00,
2013-08-26 15:01:00,79.2,76.0,30.05,East,93,4.0,4.0,90,0.06,,---,0.06,VWS V14.01,2013-08-26 19:01:00,
2013-08-26 15:06:00,79.0,76.2,30.05,East,89,3.0,5.0,91,0.06,,---,0.06,VWS V14.01,2013-08-26 19:06:00,
2013-08-26 15:10:00,78.7,75.9,30.06,NNE,20,4.0,7.0,91,0.06,,---,0.06,VWS V14.01,2013-08-26 19:10:00,
2013-08-26 15:11:00,78.7,75.9,30.05,NNE,20,5.0,5.0,91,0.06,,---,0.06,VWS V14.01,2013-08-26 19:11:00,
2013-08-26 15:16:00,78.4,75.6,30.05,North,9,7.0,10.0,91,0.06,,---,0.06,VWS V14.01,2013-08-26 19:16:00,
2013-08-26 15:20:00,78.3,75.8,30.05,NNE,17,4.0,11.0,92,0.06,,---,0.06,VWS V14.01,2013-08-26 19:20:00,
2013-08-26 15:21:00,78.3,75.8,30.05,NNE,17,6.0,6.0,92,0.06,,---,0.06,VWS V14.01,2013-08-26 19:21:00,
2013-08-26 15:26:00,78.2,75.7,30.05,North,360,3.0,8.0,92,0.06,,---,0.06,VWS V14.01,2013-08-26 19:26:00,
2013-08-26 15:30:00,78.2,76.0,30.05,NNW,342,7.0,8.0,93,0.06,,---,0.06,VWS V14.01,2013-08-26 19:30:00,
2013-08-26 15:31:00,78.1,75.6,30.05,NNW,344,8.0,8.0,92,0.06,,---,0.06,VWS V14.01,2013-08-26 19:31:00,
2013-08-26 15:36:00,77.7,74.9,30.05,NNW,348,6.0,9.0,91,0.06,,---,0.06,VWS V14.01,2013-08-26 19:36:00,
2013-08-26 15:40:00,77.4,74.6,30.04,NNW,340,7.0,12.0,91,0.06,,---,0.06,VWS V14.01,2013-08-26 19:40:00,
2013-08-26 15:41:00,77.4,74.6,30.04,NW,321,7.0,7.0,91,0.06,,---,0.06,VWS V14.01,2013-08-26 19:41:00,
2013-08-26 15:46:00,77.1,74.3,30.03,North,350,5.0,9.0,91,0.06,,---,0.06,VWS V14.01,2013-08-26 19:46:00,
2013-08-26 15:50:00,77.0,74.2,30.03,North,351,2.0,9.0,91,0.06,,---,0.06,VWS V14.01,2013-08-26 19:50:00,
2013-08-26 15:51:00,77.1,74.3,30.03,North,351,1.0,3.0,91,0.06,,---,0.06,VWS V14.01,2013-08-26 19:51:00,
2013-08-26 15:56:00,77.1,74.3,30.02,North,351,2.0,4.0,91,0.06,,---,0.06,VWS V14.01,2013-08-26 19:56:00,
2013-08-26 16:00:00,77.0,74.2,30.01,North,351,4.0,6.0,91,0.06,,---,0.06,VWS V14.01,2013-08-26 20:00:00,
2013-08-26 16:01:00,77.0,74.2,30.01,North,351,3.0,4.0,91,0.00,,---,0.06,VWS V14.01,2013-08-26 20:01:00,
2013-08-26 16:06:00,76.9,73.8,30.01,North,355,2.0,6.0,90,0.00,,---,0.06,VWS V14.01,2013-08-26 20:06:00,
2013-08-26 16:10:00,77.0,74.2,30.01,North,355,1.0,6.0,91,0.00,,---,0.06,VWS V14.01,2013-08-26 20:10:00,
2013-08-26 16:11:00,77.0,74.2,30.01,North,355,1.0,1.0,91,0.00,,---,0.06,VWS V14.01,2013-08-26 20:11:00,
2013-08-26 16:16:00,77.1,73.9,30.02,North,355,4.0,5.0,90,0.00,,---,0.06,VWS V14.01,2013-08-26 20:16:00,
2013-08-26 16:20:00,77.3,74.1,30.02,North,355,4.0,6.0,90,0.00,,---,0.06,VWS V14.01,2013-08-26 20:20:00,
2013-08-26 16:21:00,77.3,74.1,30.02,North,355,5.0,5.0,90,0.00,,---,0.06,VWS V14.01,2013-08-26 20:21:00,
2013-08-26 16:26:00,77.6,74.4,30.02,North,355,6.0,6.0,90,0.00,,---,0.06,VWS V14.01,2013-08-26 20:26:00,
2013-08-26 16:30:00,77.8,74.6,30.02,North,355,1.0,7.0,90,0.00,,---,0.06,VWS V14.01,2013-08-26 20:30:00,
2013-08-26 16:31:00,77.8,74.6,30.02,North,355,3.0,3.0,90,0.00,,---,0.06,VWS V14.01,2013-08-26 20:31:00,
2013-08-26 16:36:00,77.9,74.7,30.01,North,351,4.0,6.0,90,0.00,,---,0.06,VWS V14.01,2013-08-26 20:36:00,
2013-08-26 16:40:00,78.0,74.8,30.01,NNW,339,3.0,7.0,90,0.00,,---,0.06,VWS V14.01,2013-08-26 20:40:00,
2013-08-26 16:41:00,78.0,74.8,30.01,NNW,339,3.0,4.0,90,0.00,,---,0.06,VWS V14.01,2013-08-26 20:41:00,
2013-08-26 16:46:00,78.2,75.0,30.01,NNW,339,6.0,6.0,90,0.00,,---,0.06,VWS V14.01,2013-08-26 20:46:00,
2013-08-26 16:50:00,78.5,75.3,30.01,NNW,339,1.0,6.0,90,0.00,,---,0.06,VWS V14.01,2013-08-26 20:50:00,
2013-08-26 16:51:00,78.5,75.3,30.01,NNW,339,1.0,1.0,90,0.00,,---,0.06,VWS V14.01,2013-08-26 20:51:00,
2013-08-26 16:56:00,80.9,76.7,30.01,NNW,348,5.0,6.0,87,0.00,,---,0.06,VWS V14.01,2013-08-26 20:56:00,
2013-08-26 17:00:00,82.7,77.7,30.01,North,355,4.0,6.0,85,0.00,,---,0.06,VWS V14.01,2013-08-26 21:00:00,
2013-08-26 17:05:00,83.5,77.4,30.00,North,5,4.0,8.0,82,0.00,,---,0.06,VWS V14.01,2013-08-26 21:05:00,
2013-08-26 17:10:00,83.5,76.7,30.00,NNE,26,5.0,5.0,80,0.00,,---,0.06,VWS V14.01,2013-08-26 21:10:00,
2013-08-26 17:15:00,83.9,77.1,30.00,North,350,7.0,10.0,80,0.00,,---,0.06,VWS V14.01,2013-08-26 21:15:00,
2013-08-26 17:20:00,84.1,76.9,30.00,NNW,346,7.0,8.0,79,0.00,,---,0.06,VWS V14.01,2013-08-26 21:20:00,
2013-08-26 17:25:00,83.7,76.1,30.00,NE,41,4.0,11.0,78,0.00,,---,0.06,VWS V14.01,2013-08-26 21:25:00,
2013-08-26 17:30:00,83.1,76.3,30.00,North,11,5.0,5.0,80,0.00,,---,0.06,VWS V14.01,2013-08-26 21:30:00,
2013-08-26 17:35:00,83.1,76.3,30.00,NNE,19,6.0,8.0,80,0.00,,---,0.06,VWS V14.01,2013-08-26 21:35:00,
2013-08-26 17:40:00,83.5,76.7,30.00,NE,53,3.0,3.0,80,0.00,,---,0.06,VWS V14.01,2013-08-26 21:40:00,
2013-08-26 17:45:00,84.5,77.3,30.00,NE,38,3.0,8.0,79,0.00,,---,0.06,VWS V14.01,2013-08-26 21:45:00,
2013-08-26 17:50:00,84.7,77.5,30.00,NE,47,6.0,6.0,79,0.00,,---,0.06,VWS V14.01,2013-08-26 21:50:00,
2013-08-26 17:55:00,84.6,77.4,30.00,NNE,19,4.0,8.0,79,0.00,,---,0.06,VWS V14.01,2013-08-26 21:55:00,
2013-08-26 18:00:00,84.9,77.3,30.00,North,5,4.0,10.0,78,0.00,,---,0.06,VWS V14.01,2013-08-26 22:00:00,
2013-08-26 18:05:00,84.6,77.0,30.00,North,360,6.0,10.0,78,0.00,,---,0.06,VWS V14.01,2013-08-26 22:05:00,
2013-08-26 18:10:00,84.5,77.3,30.00,NNE,15,7.0,7.0,79,0.00,,---,0.06,VWS V14.01,2013-08-26 22:10:00,
2013-08-26 18:15:00,84.8,77.6,30.00,North,360,7.0,8.0,79,0.00,,---,0.06,VWS V14.01,2013-08-26 22:15:00,
2013-08-26 18:20:00,84.9,77.3,29.99,North,360,6.0,8.0,78,0.00,,---,0.06,VWS V14.01,2013-08-26 22:20:00,
2013-08-26 18:25:00,85.2,77.9,29.99,NNE,30,4.0,6.0,79,0.00,,---,0.06,VWS V14.01,2013-08-26 22:25:00,
2013-08-26 18:30:00,85.5,77.9,29.99,North,350,2.0,8.0,78,0.00,,---,0.06,VWS V14.01,2013-08-26 22:30:00,
2013-08-26 18:35:00,85.6,78.0,30.00,NNE,15,2.0,7.0,78,0.00,,---,0.06,VWS V14.01,2013-08-26 22:35:00,
2013-08-26 18:40:00,85.4,77.8,30.00,NNW,343,2.0,9.0,78,0.00,,---,0.06,VWS V14.01,2013-08-26 22:40:00,
2013-08-26 18:45:00,85.5,77.9,30.00,ENE,59,12.0,12.0,78,0.00,,---,0.06,VWS V14.01,2013-08-26 22:45:00,
2013-08-26 18:50:00,81.6,74.8,30.01,ENE,67,13.0,19.0,80,0.10,,---,0.16,VWS V14.01,2013-08-26 22:50:00,
2013-08-26 18:55:00,78.2,74.0,30.02,NNE,17,4.0,18.0,87,0.26,,---,0.32,VWS V14.01,2013-08-26 22:55:00,
2013-08-26 19:00:00,76.6,73.4,30.01,NNW,327,8.0,18.0,90,0.38,,---,0.44,VWS V14.01,2013-08-26 23:00:00,
2013-08-26 19:05:00,76.2,73.7,30.02,NNW,338,0.0,12.0,92,0.38,,---,0.44,VWS V14.01,2013-08-26 23:05:00,
2013-08-26 19:10:00,76.0,73.8,30.02,NNW,338,3.0,12.0,93,0.38,,---,0.44,VWS V14.01,2013-08-26 23:10:00,
2013-08-26 19:15:00,76.0,73.8,30.02,WSW,248,1.0,4.0,93,0.38,,---,0.44,VWS V14.01,2013-08-26 23:15:00,
2013-08-26 19:20:00,75.9,74.1,30.02,WSW,248,6.0,6.0,94,0.38,,---,0.44,VWS V14.01,2013-08-26 23:20:00,
2013-08-26 19:25:00,75.8,73.9,30.02,WSW,248,0.0,6.0,94,0.38,,---,0.44,VWS V14.01,2013-08-26 23:25:00,
2013-08-26 19:30:00,75.8,73.9,30.02,WSW,248,2.0,6.0,94,0.38,,---,0.44,VWS V14.01,2013-08-26 23:30:00,
2013-08-26 19:35:00,75.7,73.8,30.02,WSW,248,3.0,4.0,94,0.38,,---,0.44,VWS V14.01,2013-08-26 23:35:00,
2013-08-26 19:40:00,75.6,73.8,30.02,WSW,248,0.0,4.0,94,0.38,,---,0.44,VWS V14.01,2013-08-26 23:40:00,
2013-08-26 19:45:00,75.6,73.8,30.02,WSW,248,0.0,2.0,94,0.38,,---,0.44,VWS V14.01,2013-08-26 23:45:00,
2013-08-26 19:50:00,75.6,74.1,30.02,WSW,248,1.0,3.0,95,0.38,,---,0.44,VWS V14.01,2013-08-26 23:50:00,
2013-08-26 19:55:00,75.6,73.8,30.02,WSW,248,0.0,3.0,94,0.28,,---,0.44,VWS V14.01,2013-08-26 23:55:00,
2013-08-26 20:00:00,75.6,73.8,30.03,WSW,248,3.0,4.0,94,0.28,,---,0.44,VWS V14.01,2013-08-27 00:00:00,
2013-08-26 20:05:00,75.5,73.7,30.03,WNW,295,4.0,6.0,94,0.00,,---,0.44,VWS V14.01,2013-08-27 00:05:00,
2013-08-26 20:10:00,75.5,74.0,30.03,WNW,296,2.0,6.0,95,0.00,,---,0.44,VWS V14.01,2013-08-27 00:10:00,
2013-08-26 20:15:00,75.4,73.9,30.03,WNW,296,4.0,4.0,95,0.00,,---,0.44,VWS V14.01,2013-08-27 00:15:00,
2013-08-26 20:20:00,75.3,73.8,30.03,WNW,296,2.0,4.0,95,0.00,,---,0.44,VWS V14.01,2013-08-27 00:20:00,
2013-08-26 20:25:00,75.1,73.6,30.03,WNW,296,1.0,3.0,95,0.00,,---,0.44,VWS V14.01,2013-08-27 00:25:00,
2013-08-26 20:30:00,75.0,73.5,30.03,WNW,296,0.0,4.0,95,0.00,,---,0.44,VWS V14.01,2013-08-27 00:30:00,
2013-08-26 20:35:00,74.9,73.4,30.03,WNW,296,4.0,4.0,95,0.00,,---,0.44,VWS V14.01,2013-08-27 00:35:00,
2013-08-26 20:40:00,74.8,73.3,30.04,WNW,296,0.0,4.0,95,0.00,,---,0.44,VWS V14.01,2013-08-27 00:40:00,
2013-08-26 20:45:00,74.8,73.3,30.04,WNW,296,0.0,0.0,95,0.00,,---,0.44,VWS V14.01,2013-08-27 00:45:00,
2013-08-26 20:50:00,74.8,73.3,30.04,WNW,296,0.0,0.0,95,0.00,,---,0.44,VWS V14.01,2013-08-27 00:50:00,
2013-08-26 20:55:00,74.8,73.3,30.04,WNW,296,0.0,0.0,95,0.00,,---,0.44,VWS V14.01,2013-08-27 00:55:00,
2013-08-26 21:00:00,74.7,73.2,30.04,WNW,296,0.0,0.0,95,0.00,,---,0.44,VWS V14.01,2013-08-27 01:00:00,
2013-08-26 21:05:00,74.8,73.3,30.04,WNW,296,0.0,0.0,95,0.00,,---,0.44,VWS V14.01,2013-08-27 01:05:00,
2013-08-26 21:10:00,74.8,73.3,30.04,WNW,296,0.0,2.0,95,0.00,,---,0.44,VWS V14.01,2013-08-27 01:10:00,
2013-08-26 21:15:00,74.9,73.4,30.05,WNW,296,3.0,4.0,95,0.00,,---,0.44,VWS V14.01,2013-08-27 01:15:00,
2013-08-26 21:20:00,74.8,73.3,30.05,SSW,209,2.0,6.0,95,0.01,,---,0.45,VWS V14.01,2013-08-27 01:20:00,
2013-08-26 21:25:00,74.6,73.1,30.05,SSW,210,3.0,4.0,95,0.01,,---,0.45,VWS V14.01,2013-08-27 01:25:00,
2013-08-26 21:30:00,74.6,73.1,30.05,SSW,210,3.0,4.0,95,0.01,,---,0.45,VWS V14.01,2013-08-27 01:30:00,
2013-08-26 21:35:00,74.5,73.0,30.05,SSW,209,1.0,3.0,95,0.01,,---,0.45,VWS V14.01,2013-08-27 01:35:00,
2013-08-26 21:40:00,74.4,72.9,30.05,SSW,209,2.0,3.0,95,0.01,,---,0.45,VWS V14.01,2013-08-27 01:40:00,
2013-08-26 21:45:00,74.4,72.9,30.05,SSW,210,0.0,1.0,95,0.01,,---,0.45,VWS V14.01,2013-08-27 01:45:00,
2013-08-26 21:50:00,74.5,73.0,30.05,SSW,209,0.0,1.0,95,0.01,,---,0.45,VWS V14.01,2013-08-27 01:50:00,
2013-08-26 21:55:00,74.6,73.1,30.05,SSW,209,0.0,3.0,95,0.01,,---,0.45,VWS V14.01,2013-08-27 01:55:00,
2013-08-26 22:00:00,74.6,73.1,30.05,SSW,209,0.0,3.0,95,0.01,,---,0.45,VWS V14.01,2013-08-27 02:00:00,
2013-08-26 22:05:00,74.6,73.1,30.05,SSW,209,0.0,0.0,95,0.01,,---,0.45,VWS V14.01,2013-08-27 02:05:00,
2013-08-26 22:10:00,74.8,73.3,30.05,SSW,209,0.0,0.0,95,0.01,,---,0.45,VWS V14.01,2013-08-27 02:10:00,
2013-08-26 22:15:00,74.8,73.3,30.05,SSW,209,0.0,0.0,95,0.01,,---,0.45,VWS V14.01,2013-08-27 02:15:00,
2013-08-26 22:20:00,74.9,73.4,30.05,SSW,209,0.0,0.0,95,0.01,,---,0.45,VWS V14.01,2013-08-27 02:20:00,
2013-08-26 22:25:00,74.9,73.4,30.05,SSW,209,0.0,0.0,95,0.00,,---,0.45,VWS V14.01,2013-08-27 02:25:00,
2013-08-26 22:30:00,74.8,73.3,30.05,SSW,209,0.0,0.0,95,0.00,,---,0.45,VWS V14.01,2013-08-27 02:30:00,
2013-08-26 22:35:00,74.7,73.2,30.05,SSW,209,0.0,0.0,95,0.00,,---,0.45,VWS V14.01,2013-08-27 02:35:00,
2013-08-26 22:40:00,74.6,73.1,30.05,SSW,209,2.0,2.0,95,0.00,,---,0.45,VWS V14.01,2013-08-27 02:40:00,
2013-08-26 22:45:00,74.6,73.1,30.05,SSW,209,2.0,3.0,95,0.00,,---,0.45,VWS V14.01,2013-08-27 02:45:00,
2013-08-26 22:50:00,74.5,73.0,30.05,SSW,210,2.0,4.0,95,0.00,,---,0.45,VWS V14.01,2013-08-27 02:50:00,
2013-08-26 22:55:00,74.4,72.9,30.05,SSW,210,0.0,3.0,95,0.00,,---,0.45,VWS V14.01,2013-08-27 02:55:00,
2013-08-26 23:00:00,74.4,72.9,30.06,SSW,210,0.0,3.0,95,0.00,,---,0.45,VWS V14.01,2013-08-27 03:00:00,
2013-08-26 23:05:00,74.4,72.9,30.06,SSW,210,0.0,1.0,95,0.01,,---,0.46,VWS V14.01,2013-08-27 03:05:00,
2013-08-26 23:10:00,74.3,72.8,30.06,SSW,210,0.0,2.0,95,0.01,,---,0.46,VWS V14.01,2013-08-27 03:10:00,
2013-08-26 23:15:00,74.2,72.7,30.06,SSW,210,0.0,1.0,95,0.01,,---,0.46,VWS V14.01,2013-08-27 03:15:00,
2013-08-26 23:20:00,74.1,72.6,30.05,SSW,210,0.0,1.0,95,0.01,,---,0.46,VWS V14.01,2013-08-27 03:20:00,
2013-08-26 23:25:00,74.1,72.6,30.05,SSW,210,0.0,0.0,95,0.01,,---,0.46,VWS V14.01,2013-08-27 03:25:00,
2013-08-26 23:30:00,74.0,72.5,30.06,SSW,210,0.0,0.0,95,0.01,,---,0.46,VWS V14.01,2013-08-27 03:30:00,
2013-08-26 23:35:00,73.9,72.4,30.05,SSW,210,0.0,0.0,95,0.01,,---,0.46,VWS V14.01,2013-08-27 03:35:00,
2013-08-26 23:40:00,74.1,72.6,30.05,SSW,210,0.0,0.0,95,0.01,,---,0.46,VWS V14.01,2013-08-27 03:40:00,
2013-08-26 23:45:00,74.0,72.5,30.05,SSW,210,0.0,0.0,95,0.01,,---,0.46,VWS V14.01,2013-08-27 03:45:00,
2013-08-26 23:50:00,74.0,72.5,30.06,SSW,210,0.0,2.0,95,0.01,,---,0.46,VWS V14.01,2013-08-27 03:50:00,
2013-08-26 23:55:00,73.9,72.4,30.05,SSW,210,0.0,1.0,95,0.01,,---,0.46,VWS V14.01,2013-08-27 03:55:00,